Weather History for Panama City Tyndall AFB, FL

Change the Weather History Date:

Saturday, March 15, 2014

  Actual Average Record
Temperature  
Mean Temperature 59 °F -  
Max Temperature 72 °F 68 °F 80 °F (2012)
Min Temperature 46 °F 51 °F 40 °F (2013)
Degree Days  
Heating Degree Days 6    
Growing Degree Days 9 (Base 50)    
Moisture  
Dew Point 49 °F    
Average Humidity 73    
Maximum Humidity 87    
Minimum Humidity 59    
Precipitation  
Precipitation 0.00 in - - ()
Sea Level Pressure  
Sea Level Pressure 30.10 in    
Wind  
Wind Speed 4 mph (SE)    
Max Wind Speed 21 mph    
Max Gust Speed -    
Visibility 9 miles    
Events Rain    
Averages and records for this station are not official NWS values.
T = Trace of Precipitation, MM = Missing Value Source: NWS Daily Summary

Daily Weather History Graph

Daily Weather History Graph

Search for Another Location

Airport:

Trip Planner

Search our weather history database for the weather conditions in past years. The results will help you decide how hot, cold, wet, or windy it might be!

Date:

Astronomy

Mar. 15, 2014 Rise Set
Actual Time 6:52 AM CDT 6:50 PM CDT
Civil Twilight 6:28 AM CDT 7:14 PM CDT
Nautical Twilight 6:00 AM CDT 7:42 PM CDT
Astronomical Twilight 5:32 AM CDT 8:10 PM CDT
Moon 6:09 PM CDT (3/15) 6:01 AM CDT (3/15)
Length of Visible Light 12h 46m
Length of Day
11h 58m
Waxing Gibbous, 99% of the Moon is Illuminated
Mar 15
Waxing Gibbous
Mar 16
Full
Mar 23
Last Quarter
Mar 30
New
Apr 7
First Quarter

Hourly Weather History & Observations

Time (CDT) Temp. Dew Point Humidity Pressure Visibility Wind Dir Wind Speed Gust Speed Precip Events Conditions
12:58 AM 48.7 °F 44.2 °F 84% 30.18 in 9.0 mi Calm Calm - N/A   Clear
1:43 AM 48.2 °F 42.8 °F 82% 30.15 in 8.0 mi East 3.5 mph - N/A   Clear
1:53 AM 48.2 °F 44.6 °F 87% 30.15 in 10.0 mi Calm Calm - N/A   Clear
1:58 AM 48.2 °F 43.9 °F 85% 30.16 in 10.0 mi Calm Calm - N/A   Clear
2:03 AM 48.2 °F 42.8 °F 82% 30.15 in 7.0 mi East 2.3 mph - N/A   Clear
2:13 AM 48.2 °F 44.6 °F 87% 30.14 in 10.0 mi East 2.3 mph - N/A   Clear
2:53 AM 48.2 °F 42.8 °F 82% 30.13 in 7.0 mi Calm Calm - N/A   Clear
2:58 AM 48.2 °F 42.8 °F 82% 30.15 in 4.0 mi Calm Calm - N/A   Haze
3:03 AM 48.2 °F 42.8 °F 82% 30.14 in 5.0 mi Calm Calm - N/A   Haze
3:08 AM 46.4 °F 42.8 °F 87% 30.14 in 10.0 mi Calm Calm - N/A   Partly Cloudy
3:38 AM 48.2 °F 42.8 °F 82% 30.12 in 8.0 mi Calm Calm - N/A   Clear
3:43 AM 48.2 °F 42.8 °F 82% 30.13 in 6.0 mi Calm Calm - N/A   Haze
3:48 AM 46.4 °F 42.8 °F 87% 30.13 in 6.0 mi Calm Calm - N/A   Haze
3:53 AM 46.4 °F 42.8 °F 87% 30.14 in 10.0 mi Calm Calm - N/A   Clear
3:58 AM 46.9 °F 42.1 °F 83% 30.15 in 10.0 mi Calm Calm - N/A   Clear
4:58 AM 47.1 °F 41.7 °F 81% 30.14 in 10.0 mi East 3.5 mph - N/A   Clear
5:58 AM 48.4 °F 43.0 °F 82% 30.14 in 10.0 mi Calm Calm - N/A   Clear
6:58 AM 48.4 °F 42.8 °F 81% 30.15 in 10.0 mi Calm Calm - N/A   Partly Cloudy
7:58 AM 51.6 °F 43.0 °F 72% 30.17 in 10.0 mi ESE 9.2 mph - N/A   Clear
8:58 AM 57.9 °F 44.2 °F 60% 30.18 in 10.0 mi East 6.9 mph - N/A   Clear
9:58 AM 63.1 °F 48.7 °F 59% 30.17 in 10.0 mi ESE 8.1 mph - 0.00 in   Light Drizzle
10:58 AM 67.3 °F 52.9 °F 60% 30.16 in 10.0 mi East 10.4 mph - 0.00 in   Light Drizzle
11:06 AM 68.0 °F 53.6 °F 60% 30.15 in 10.0 mi ESE 10.4 mph - N/A   Clear
11:58 AM 70.3 °F 55.6 °F 59% 30.15 in 10.0 mi East 8.1 mph - 0.00 in   Partly Cloudy
12:23 PM 71.6 °F 57.2 °F 60% 30.12 in 10.0 mi South 8.1 mph - N/A   Mostly Cloudy
12:33 PM 71.6 °F 57.2 °F 60% 30.12 in 10.0 mi South 9.2 mph - N/A   Scattered Clouds
12:58 PM 72.1 °F 58.1 °F 61% 30.12 in 10.0 mi South 10.4 mph - N/A   Partly Cloudy
1:58 PM 71.8 °F 58.5 °F 63% 30.09 in 10.0 mi South 16.1 mph - N/A   Partly Cloudy
2:58 PM 69.8 °F 57.9 °F 66% 30.06 in 10.0 mi South 16.1 mph - N/A   Partly Cloudy
3:58 PM 68.2 °F 57.0 °F 67% 30.04 in 10.0 mi SSE 20.7 mph - N/A   Scattered Clouds
4:58 PM 67.5 °F 56.7 °F 68% 30.04 in 10.0 mi SSE 17.3 mph - N/A   Overcast
5:58 PM 67.6 °F 53.6 °F 61% 30.03 in 10.0 mi SSE 17.3 mph - N/A   Overcast
6:58 PM 66.0 °F 53.2 °F 63% 30.04 in 10.0 mi SE 10.4 mph - N/A   Overcast
7:31 PM 64.4 °F 53.6 °F 68% 30.02 in 10.0 mi ESE 5.8 mph - N/A Rain Light Rain
7:33 PM 64.4 °F 53.6 °F 68% 30.02 in 10.0 mi ESE 5.8 mph - N/A   Partly Cloudy
7:34 PM 64.4 °F 53.6 °F 68% 30.02 in 10.0 mi ESE 5.8 mph - N/A   Light Drizzle
7:44 PM 64.4 °F 53.6 °F 68% 30.02 in 10.0 mi SE 6.9 mph - N/A   Partly Cloudy
7:58 PM 63.5 °F 53.4 °F 70% 30.04 in 10.0 mi SE 6.9 mph - 0.00 in   Partly Cloudy
8:58 PM 63.1 °F 53.4 °F 71% 30.03 in 10.0 mi SE 10.4 mph - N/A   Clear
9:58 PM 63.1 °F 52.7 °F 69% 30.03 in 10.0 mi SE 10.4 mph - N/A   Mostly Cloudy
10:58 PM 63.0 °F 52.9 °F 70% 30.02 in 10.0 mi SE 8.1 mph - N/A   Overcast
11:58 PM 64.6 °F 53.1 °F 66% 29.98 in 10.0 mi SE 11.5 mph - N/A   Overcast